Volver al catálogo

DMSP 5D-2 F11 DEB

ActivoSSO
NORAD 28335·DEBRIS·🇺🇸 United States

Lanzado Nov 28, 1991 desde Vandenberg Space Force Base

Loading…

Próximos Pases (próximas 24 horas)

TLE

EnvejeciendoSource: Space-Track

Época: Sep 10, 2026, 11:45 UTC

1 28335U 91082AY  26253.49013632  .00002598  00000-0  70354-3 0  9993
2 28335  98.5544 330.0319 0007816 359.7389   0.3799 14.48531621687355

Sigue DMSP 5D-2 F11 DEB en tiempo real con AllMySat

Download on the App Store